{"data":{"norad_id":48655,"intl_designator":"2021-044T","name":"STARLINK-2657","alt_names":[],"object_type":"PAYLOAD","status":"ACTIVE","operator":null,"country":"US","launch_date":"2021-05-26","launch_site_code":"AFETR","launch_vehicle":null,"mission":null,"orbit_class":"UNKNOWN","rcs_meters":null,"size_class":null,"mass_kg":null,"dimensions":null,"purposes":["comms"],"wikipedia_slug":null,"has_3d_model":false,"image_url":null,"decayed_at":null,"tle_current":{"epoch":"2026-09-19T14:02:22.580448Z","epoch_age_seconds":116252,"freshness":"FRESH","line1":"1 48655U 21044T   26262.58498357  .00001832  00000+0  70756-4 0  9998","line2":"2 48655  53.1619 291.6422 0001262  90.2721 269.8425 15.31707035293533","mean_motion":15.31707035,"eccentricity":0.0001262,"inclination_deg":53.1619,"raan_deg":291.6422,"arg_perigee_deg":90.2721,"mean_anomaly_deg":269.8425,"bstar":7.0756e-5,"rev_number":29353,"period_min":94.012756166521,"perigee_km":469.85469870671,"apogee_km":471.58334996726,"semimajor_km":6848.856024337,"source":"CELESTRAK","updated_at":"2026-09-20T09:00:39.142200Z"}}}